• In Portugal
  • List of Countries
  • For 7 days
  • Water Temperature
  • Satellite Maps
  • Weather Map
  • Weather Widgets
  • user-avatar
    Login

    Hourly Weather Mörön

    Today, 21 February, Wednesday

    Time Temperature Precipitation Wind Pressure Humidity
    00:00 -24°C° 0 mm 3 mps 620 mmHg 77%
    01:00 -24°C° 0 mm 3 mps 620 mmHg 77%
    02:00 -24°C° 0 mm 3 mps 620 mmHg 77%
    03:00 -24°C° 0 mm 3 mps 619 mmHg 78%
    04:00 -24°C° 0 mm 3 mps 619 mmHg 78%
    05:00 -24°C° 0 mm 3 mps 619 mmHg 79%
    06:00 -24°C° 0 mm 3 mps 619 mmHg 79%
    07:00 -24°C° 0 mm 3 mps 619 mmHg 80%
    08:00 -23°C° 0 mm 3 mps 619 mmHg 76%
    09:00 -22°C° 0 mm 3 mps 618 mmHg 72%
    10:00 -22°C° 0 mm 4 mps 618 mmHg 68%
    11:00 -20°C° 0 mm 4 mps 618 mmHg 65%
    12:00 -18°C° 0 mm 4 mps 617 mmHg 63%
    13:00 -18°C° 0 mm 5 mps 617 mmHg 60%
    14:00 -18°C° 0 mm 5 mps 617 mmHg 60%
    15:00 -17°C° 0 mm 5 mps 616 mmHg 60%
    16:00 -17°C° 0 mm 5 mps 616 mmHg 61%
    17:00 -19°C° 0 mm 5 mps 616 mmHg 66%
    18:00 -19°C° 0 mm 4 mps 616 mmHg 71%
    19:00 -20°C° 0 mm 4 mps 616 mmHg 76%
    20:00 -21°C° 0 mm 3 mps 616 mmHg 77%
    21:00 -21°C° 0 mm 3 mps 616 mmHg 77%
    22:00 -22°C° 0 mm 3 mps 616 mmHg 78%
    23:00 -22°C° 0 mm 3 mps 615 mmHg 78%

    Tomorrow, 22 February, Thursday

    Time Temperature Precipitation Wind Pressure Humidity
    00:00 -22°C° 0 mm 3 mps 615 mmHg 78%
    01:00 -22°C° 0 mm 3 mps 615 mmHg 79%
    02:00 -22°C° 0 mm 3 mps 615 mmHg 79%
    03:00 -22°C° 0 mm 3 mps 614 mmHg 79%
    04:00 -22°C° 0 mm 3 mps 614 mmHg 80%
    05:00 -22°C° 0 mm 3 mps 613 mmHg 80%
    06:00 -22°C° 0 mm 3 mps 613 mmHg 80%
    07:00 -22°C° 0 mm 3 mps 613 mmHg 80%
    08:00 -21°C° 0 mm 3 mps 613 mmHg 75%
    09:00 -18°C° 0 mm 3 mps 613 mmHg 70%
    10:00 -18°C° 0 mm 4 mps 612 mmHg 65%
    11:00 -16°C° 0 mm 4 mps 612 mmHg 63%
    12:00 -15°C° 0 mm 5 mps 612 mmHg 60%
    13:00 -13°C° 0 mm 5 mps 611 mmHg 57%
    14:00 -13°C° 0 mm 5 mps 611 mmHg 59%
    15:00 -13°C° 0 mm 5 mps 611 mmHg 61%
    16:00 -11°C° 0 mm 4 mps 610 mmHg 63%
    17:00 -14°C° 0 mm 4 mps 610 mmHg 68%
    18:00 -14°C° 0 mm 3 mps 611 mmHg 73%
    19:00 -15°C° 0 mm 3 mps 611 mmHg 78%
    20:00 -16°C° 0 mm 3 mps 611 mmHg 79%
    21:00 -16°C° 0 mm 3 mps 612 mmHg 80%
    22:00 -16°C° 0 mm 3 mps 612 mmHg 81%
    23:00 -16°C° 0 mm 3 mps 613 mmHg 82%

    Day after tomorrow, 23 February, Friday

    Time Temperature Precipitation Wind Pressure Humidity
    00:00 -16°C° 0 mm 3 mps 613 mmHg 83%
    01:00 -17°C° 0 mm 3 mps 613 mmHg 83%
    02:00 -17°C° 0 mm 3 mps 613 mmHg 84%
    03:00 -17°C° 0 mm 3 mps 613 mmHg 84%
    04:00 -17°C° 0 mm 3 mps 614 mmHg 84%
    05:00 -18°C° 0 mm 3 mps 614 mmHg 84%
    06:00 -18°C° 0 mm 3 mps 614 mmHg 84%
    07:00 -18°C° 0 mm 3 mps 614 mmHg 84%
    08:00 -17°C° 0 mm 3 mps 615 mmHg 79%
    09:00 -16°C° 0 mm 3 mps 616 mmHg 74%
    10:00 -14°C° 0 mm 3 mps 616 mmHg 69%
    11:00 -13°C° 0 mm 3 mps 616 mmHg 65%
    12:00 -12°C° 0 mm 3 mps 616 mmHg 60%
    13:00 -9°C° 0 mm 3 mps 616 mmHg 55%
    14:00 -9°C° 0 mm 3 mps 616 mmHg 55%
    15:00 -9°C° 0 mm 3 mps 616 mmHg 55%
    16:00 -9°C° 0 mm 3 mps 616 mmHg 55%
    17:00 -9°C° 0 mm 2 mps 616 mmHg 60%
    18:00 -12°C° 0 mm 2 mps 616 mmHg 64%
    19:00 -13°C° 0 mm 2 mps 616 mmHg 69%
    20:00 -13°C° 0 mm 2 mps 616 mmHg 71%
    21:00 -14°C° 0 mm 2 mps 616 mmHg 74%
    22:00 -14°C° 0 mm 2 mps 617 mmHg 76%
    23:00 -15°C° 0 mm 2 mps 617 mmHg 78%

    24 February, Saturday

    Time Temperature Precipitation Wind Pressure Humidity
    00:00 -15°C° 0 mm 2 mps 617 mmHg 80%
    01:00 -15°C° 0 mm 2 mps 617 mmHg 81%
    02:00 -16°C° 0 mm 2 mps 617 mmHg 83%
    03:00 -16°C° 0 mm 2 mps 617 mmHg 84%
    04:00 -16°C° 0 mm 2 mps 617 mmHg 85%
    05:00 -17°C° 0 mm 2 mps 617 mmHg 85%
    06:00 -17°C° 0 mm 2 mps 617 mmHg 85%
    07:00 -17°C° 0 mm 2 mps 617 mmHg 84%
    08:00 -16°C° 0 mm 2 mps 617 mmHg 79%
    09:00 -14°C° 0 mm 2 mps 617 mmHg 73%
    10:00 -13°C° 0 mm 2 mps 617 mmHg 67%
    11:00 -12°C° 0 mm 2 mps 617 mmHg 61%
    12:00 -9°C° 0 mm 2 mps 617 mmHg 56%
    13:00 -7°C° 0 mm 2 mps 616 mmHg 50%
    14:00 -7°C° 0 mm 2 mps 616 mmHg 51%
    15:00 -7°C° 0 mm 2 mps 615 mmHg 52%
    16:00 -4°C° 0 mm 1 mps 615 mmHg 53%
    17:00 -7°C° 0 mm 1 mps 615 mmHg 57%
    18:00 -8°C° 0 mm 1 mps 615 mmHg 61%
    19:00 -9°C° 0 mm 1 mps 615 mmHg 65%
    20:00 -12°C° 0 mm 2 mps 615 mmHg 66%
    21:00 -12°C° 0 mm 2 mps 615 mmHg 67%
    22:00 -12°C° 0 mm 2 mps 615 mmHg 68%
    23:00 -12°C° 0 mm 2 mps 614 mmHg 68%

    25 February, Sunday

    Time Temperature Precipitation Wind Pressure Humidity
    00:00 -13°C° 0 mm 2 mps 614 mmHg 69%
    01:00 -13°C° 0 mm 2 mps 614 mmHg 70%
    02:00 -13°C° 0 mm 2 mps 614 mmHg 70%
    03:00 -14°C° 0 mm 2 mps 613 mmHg 70%
    04:00 -14°C° 0 mm 2 mps 613 mmHg 71%
    05:00 -15°C° 0 mm 2 mps 613 mmHg 71%
    06:00 -15°C° 0 mm 2 mps 613 mmHg 71%
    07:00 -15°C° 0 mm 2 mps 613 mmHg 71%
    08:00 -15°C° 0 mm 3 mps 613 mmHg 67%
    09:00 -13°C° 0 mm 3 mps 613 mmHg 63%
    10:00 -12°C° 0 mm 3 mps 613 mmHg 59%
    11:00 -11°C° 0 mm 5 mps 613 mmHg 57%
    12:00 -10°C° 0 mm 6 mps 613 mmHg 54%
    13:00 -9°C° 0 mm 7 mps 613 mmHg 51%
    14:00 -9°C° 0 mm 7 mps 613 mmHg 51%
    15:00 -11°C° 0 mm 7 mps 614 mmHg 51%
    16:00 -11°C° 0 mm 7 mps 614 mmHg 51%
    17:00 -12°C° 0 mm 6 mps 614 mmHg 57%
    18:00 -12°C° 0 mm 4 mps 615 mmHg 63%
    19:00 -13°C° 0 mm 3 mps 616 mmHg 68%
    20:00 -14°C° 0 mm 3 mps 616 mmHg 71%
    21:00 -15°C° 0 mm 3 mps 616 mmHg 73%
    22:00 -16°C° 0 mm 3 mps 617 mmHg 75%
    23:00 -16°C° 0 mm 3 mps 616 mmHg 76%

    26 February, Monday

    Time Temperature Precipitation Wind Pressure Humidity
    00:00 -16°C° 0 mm 2 mps 616 mmHg 77%
    01:00 -16°C° 0 mm 2 mps 616 mmHg 78%
    02:00 -17°C° 0 mm 2 mps 616 mmHg 79%
    03:00 -17°C° 0 mm 2 mps 616 mmHg 80%
    04:00 -17°C° 0 mm 2 mps 615 mmHg 80%
    05:00 -17°C° 0 mm 2 mps 615 mmHg 82%
    06:00 -17°C° 0 mm 2 mps 615 mmHg 83%
    07:00 -15°C° 0 mm 1 mps 615 mmHg 84%
    08:00 -14°C° 0.1 mm 1 mps 614 mmHg 82%
    09:00 -13°C° 0.1 mm 1 mps 614 mmHg 79%
    10:00 -12°C° 0.1 mm 1 mps 614 mmHg 77%
    11:00 -12°C° 0.1 mm 2 mps 614 mmHg 73%
    12:00 -12°C° 0.1 mm 3 mps 613 mmHg 69%
    13:00 -11°C° 0.1 mm 4 mps 613 mmHg 66%
    14:00 -11°C° 0 mm 4 mps 613 mmHg 64%
    15:00 -11°C° 0 mm 4 mps 613 mmHg 62%
    16:00 -11°C° 0 mm 4 mps 613 mmHg 60%
    17:00 -12°C° 0 mm 4 mps 614 mmHg 64%
    18:00 -15°C° 0 mm 4 mps 614 mmHg 68%
    19:00 -16°C° 0 mm 4 mps 615 mmHg 72%
    20:00 -17°C° 0 mm 4 mps 615 mmHg 71%
    21:00 -18°C° 0 mm 3 mps 615 mmHg 70%
    22:00 -19°C° 0 mm 3 mps 615 mmHg 69%
    23:00 -21°C° 0 mm 3 mps 615 mmHg 70%
    Show more